Content
SEND FEEDBACK

Daily
Averages
Monthly
Summary
Canada

VANCOUVER, BRITISH COLUMBIA


Home > North America > Canada > British Columbia
Elevation: 7 feet     Latitude: 49 11N     Longitude: 123 10W

WEATHER
 
SELECT A DAY
Number of Records: 248,579;   Date Range: 5/15/97 - 4/14/14
 
SHARE

PRINT THIS DATA

[ ← Previous Day ]
WEATHER ALMANAC - APRIL 3, 2013
[ Next Day → ]
[ °C ]   °F
Weather ElementAverageHighLow
Temperature48.5 °F53.6 °F (4:15 pm)44.6 °F (10:15 pm)
Dewpoint45.4 °F48.2 °F (5:35 pm)42.8 °F (12:35 am)
Humidity89.1 %100 % (9:15 pm)72 % (4:15 pm)
Barometer30.11 in30.18 in (12:35 am)29.97 in (11:55 pm)
Wind Speed1.4 mph6.9 mph (1:15 pm)
Weather ElementAverage
Visibility9.9 mi
Wind DirectionE (87 °)

Weather ElementTotal
Precipitation---
Heating Degree Days15.9 (Base 65)
Averaged from 70 records on April 3, 2013
WEATHER CONDITIONS BREAKOUT
WIND DIRECTION BREAKOUT
WEATHER BY HOUR - APRIL 3, 2013
[ °C ]   °F
Local TimeTemperatureDewpointHumidityBarometerVisibilityWind DirectionWind SpeedGust SpeedPrecipitationEventsConditions
12:35 AM48.2 °F42.8 °F82 %30.18 in10.0 miCalmOvercast
12:55 AM48.2 °F42.8 °F82 %30.17 in10.0 miCalmOvercast
1:15 AM48.2 °F42.8 °F82 %30.17 in10.0 miCalmOvercast
1:35 AM48.2 °F42.8 °F82 %30.18 in10.0 miCalmOvercast
1:55 AM48.2 °F42.8 °F82 %30.18 in10.0 miCalmOvercast
2:15 AM48.2 °F44.6 °F87 %30.18 in10.0 miCalmOvercast
2:35 AM48.2 °F44.6 °F87 %30.18 in10.0 miCalmMostly Cloudy
2:55 AM48.2 °F44.6 °F87 %30.18 in10.0 miCalmMostly Cloudy
3:15 AM48.2 °F44.6 °F87 %30.17 in10.0 miCalmOvercast
3:35 AM46.4 °F44.6 °F93 %30.17 in10.0 miCalmMostly Cloudy
3:55 AM46.4 °F44.6 °F93 %30.17 in10.0 miCalmMostly Cloudy
4:15 AM46.4 °F44.6 °F93 %30.17 in10.0 miCalmMostly Cloudy
4:35 AM46.4 °F44.6 °F93 %30.16 in10.0 miCalmMostly Cloudy
4:55 AM46.4 °F44.6 °F93 %30.17 in10.0 miCalmMostly Cloudy
5:15 AM46.4 °F44.6 °F93 %30.17 in10.0 miCalmOvercast
5:35 AM46.4 °F44.6 °F93 %30.17 in10.0 miCalmOvercast
5:55 AM46.4 °F44.6 °F93 %30.16 in10.0 miCalmOvercast
6:15 AM46.4 °F44.6 °F93 %30.16 in10.0 miCalmOvercast
6:35 AM46.4 °F44.6 °F93 %30.16 in10.0 miCalmMostly Cloudy
6:55 AM46.4 °F44.6 °F93 %30.16 in10.0 miCalmMostly Cloudy
7:15 AM46.4 °F44.6 °F93 %30.16 in10.0 miCalmMostly Cloudy
7:35 AM46.4 °F44.6 °F93 %30.17 in10.0 miCalmMostly Cloudy
7:55 AM46.4 °F44.6 °F93 %30.17 in10.0 miCalmMostly Cloudy
8:15 AM46.4 °F44.6 °F93 %30.17 in10.0 miCalmMostly Cloudy
8:35 AM48.2 °F46.4 °F93 %30.16 in10.0 miCalmOvercast
8:55 AM48.2 °F46.4 °F93 %30.16 in10.0 miCalmOvercast
9:15 AM48.2 °F46.4 °F93 %30.16 in10.0 miCalmMostly Cloudy
9:35 AM48.2 °F46.4 °F93 %30.15 in10.0 miCalmMostly Cloudy
9:55 AM48.2 °F46.4 °F93 %30.15 in10.0 miNorth (360°)4.6 mphMostly Cloudy
10:15 AM48.2 °F46.4 °F93 %30.15 in10.0 miCalmMostly Cloudy
10:35 AM48.2 °F46.4 °F93 %30.15 in10.0 miCalmMostly Cloudy
10:55 AM50.0 °F46.4 °F87 %30.14 in10.0 miCalmPartly Cloudy
11:35 AM50.0 °F46.4 °F87 %30.15 in10.0 miCalmMostly Cloudy
11:55 AM50.0 °F46.4 °F87 %30.15 in10.0 miNNW (340°)4.6 mphMostly Cloudy
12:15 PM50.0 °F46.4 °F87 %30.14 in9.0 miNNW (340°)4.6 mphMostly Cloudy
12:35 PM50.0 °F46.4 °F87 %30.14 in9.0 miNNW (330°)5.8 mphOvercast
12:55 PM50.0 °F46.4 °F87 %30.14 in9.0 miNNW (330°)5.8 mphOvercast
1:15 PM50.0 °F46.4 °F87 %30.14 in10.0 miNW (320°)6.9 mphMostly Cloudy
1:35 PM50.0 °F44.6 °F82 %30.14 in9.0 miNNW (330°)6.9 mphOvercast
1:55 PM50.0 °F46.4 °F87 %30.13 in10.0 miNNW (340°)5.8 mphMostly Cloudy
2:15 PM51.8 °F44.6 °F76 %30.12 in10.0 miNNW (330°)5.8 mphPartly Cloudy
2:35 PM51.8 °F44.6 °F76 %30.12 in10.0 miNNW (340°)5.8 mphClear
2:55 PM51.8 °F44.6 °F76 %30.12 in10.0 miNNW (340°)5.8 mphClear
3:15 PM51.8 °F44.6 °F76 %30.11 in10.0 miNNW (340°)5.8 mphClear
3:35 PM51.8 °F46.4 °F82 %30.11 in10.0 miNorth (350°)6.9 mphClear
3:55 PM51.8 °F46.4 °F82 %30.09 in10.0 miNorth (350°)5.8 mphClear
4:15 PM53.6 °F44.6 °F72 %30.09 in10.0 miNNW (330°)4.6 mphClear
4:35 PM51.8 °F46.4 °F82 %30.09 in10.0 miNNW (330°)4.6 mphClear
4:55 PM51.8 °F46.4 °F82 %30.08 in10.0 miCalmClear
5:15 PM51.8 °F46.4 °F82 %30.08 in10.0 miNNW (340°)4.6 mphClear
5:35 PM51.8 °F48.2 °F88 %30.07 in10.0 miNorth (350°)4.6 mphClear
5:55 PM50.0 °F46.4 °F87 %30.07 in10.0 miCalmClear
6:15 PM50.0 °F46.4 °F87 %30.06 in10.0 miCalmClear
6:35 PM50.0 °F46.4 °F87 %30.05 in10.0 miCalmClear
6:55 PM50.0 °F46.4 °F87 %30.04 in9.0 miCalmClear
7:15 PM50.0 °F46.4 °F87 %30.03 in10.0 miCalmClear
7:35 PM50.0 °F46.4 °F87 %30.03 in10.0 miCalmClear
7:55 PM48.2 °F46.4 °F93 %30.02 in10.0 miCalmClear
8:15 PM48.2 °F46.4 °F93 %30.01 in10.0 miCalmClear
8:35 PM48.2 °F46.4 °F93 %30.01 in10.0 miCalmClear
8:55 PM48.2 °F46.4 °F93 %30.01 in10.0 miCalmClear
9:15 PM46.4 °F46.4 °F100 %30.01 in10.0 miCalmClear
9:35 PM46.4 °F44.6 °F93 %30.01 in10.0 miCalmClear
9:55 PM46.4 °F44.6 °F93 %30.00 in10.0 miCalmClear
10:15 PM44.6 °F44.6 °F100 %29.99 in10.0 miCalmClear
10:35 PM46.4 °F46.4 °F100 %29.99 in10.0 miCalmClear
10:55 PM46.4 °F46.4 °F100 %29.99 in10.0 miCalmClear
11:15 PM46.4 °F46.4 °F100 %29.99 in10.0 miCalmClear
11:35 PM46.4 °F46.4 °F100 %29.98 in10.0 miCalmClear
11:55 PM46.4 °F46.4 °F100 %29.97 in10.0 miCalmClear
Hourly data recorded from CZBB, located 0.75 miles away from Vancouver, British Columbia







STORIES FROM OUR PARTNERS